Weather History for Rensselaer, IN

Change the Weather History Date:

Saturday, January 19, 2013

  Actual Average (KVPZ) Record (KVPZ)
Temperature  
Mean Temperature 42 °F 23 °F  
Max Temperature 50 °F 31 °F 55 °F (2006)
Min Temperature 33 °F 16 °F -3 °F (2003)
Degree Days  
Heating Degree Days 24 42  
Month to date heating degree days 789  
Since 1 July heating degree days 3191  
Cooling Degree Days 0 0  
Month to date cooling degree days 0  
Year to date cooling degree days 0  
Moisture  
Dew Point 31 °F    
Average Humidity 69    
Maximum Humidity 87    
Minimum Humidity 50    
Precipitation  
Precipitation 0.00 in 0.06 in 0.07 in (2009)
Month to date precipitation 1.04  
Year to date precipitation 1.04  
Sea Level Pressure  
Sea Level Pressure 29.90 in    
Wind  
Wind Speed 20 mph (SW)    
Max Wind Speed 28 mph    
Max Gust Speed 38 mph    
Visibility 10 miles    
Events      
T = Trace of Precipitation, MM = Missing Value Source: NWS Daily Summary

Daily Weather History Graph

Daily Weather History Graph

Search for Another Location

Airport:

Trip Planner

Search our weather history database for the weather conditions in past years. The results will help you decide how hot, cold, wet, or windy it might be!

Date:

Astronomy

Jan. 19, 2013 Rise Set
Actual Time 7:09 AM CST 4:50 PM CST
Civil Twilight 6:39 AM CST 5:20 PM CST
Nautical Twilight 6:05 AM CST 5:53 PM CST
Astronomical Twilight 5:32 AM CST 6:26 PM CST
Moon 11:16 AM CST (1/19) 12:42 AM CST (1/19)
Length of Visible Light 10h 41m
Length of Day
9h 41m
First Quarter, 57% of the Moon is Illuminated
Jan 19
First Quarter
Jan 26
Full
Feb 3
Last Quarter
Feb 10
New
Feb 17
First Quarter

Hourly Weather History & Observations

Time (CST) Temp. Windchill Dew Point Humidity Pressure Visibility Wind Dir Wind Speed Gust Speed Precip Events Conditions
12:15 AM 37.4 °F 26.9 °F 28.4 °F 70% 30.02 in 10.0 mi SSW 20.7 mph 33.4 mph N/A   Clear
12:35 AM 37.4 °F 26.1 °F 28.4 °F 70% 30.02 in 10.0 mi SSW 24.2 mph 32.2 mph N/A   Clear
12:55 AM 35.6 °F 24.2 °F 28.4 °F 75% 30.02 in 10.0 mi SSW 21.9 mph 29.9 mph N/A   Clear
1:15 AM 37.4 °F 26.6 °F 28.4 °F 70% 30.02 in 10.0 mi SSW 21.9 mph 28.8 mph N/A   Clear
1:35 AM 37.4 °F 27.2 °F 28.4 °F 70% 30.03 in 10.0 mi SSW 19.6 mph 31.1 mph N/A   Clear
1:55 AM 37.4 °F 26.6 °F 30.2 °F 75% 30.03 in 10.0 mi SSW 21.9 mph 29.9 mph N/A   Clear
2:15 AM 37.4 °F 27.2 °F 30.2 °F 75% 30.03 in 10.0 mi SSW 19.6 mph 32.2 mph N/A   Clear
2:35 AM 35.6 °F 24.2 °F 30.2 °F 81% 30.03 in 10.0 mi SSW 21.9 mph 29.9 mph N/A   Clear
2:55 AM 35.6 °F 24.2 °F 30.2 °F 81% 30.03 in 10.0 mi SW 21.9 mph 29.9 mph N/A   Clear
3:15 AM 35.6 °F 24.8 °F 30.2 °F 81% 30.02 in 10.0 mi SSW 19.6 mph 26.5 mph N/A   Clear
3:35 AM 35.6 °F 25.9 °F 30.2 °F 81% 30.01 in 10.0 mi SSW 16.1 mph 26.5 mph N/A   Clear
3:55 AM 35.6 °F 25.2 °F 30.2 °F 81% 30.01 in 10.0 mi SW 18.4 mph 24.2 mph N/A   Clear
4:15 AM 35.6 °F 25.5 °F 30.2 °F 81% 30.00 in 10.0 mi SSW 17.3 mph 23.0 mph N/A   Clear
4:35 AM 35.6 °F 25.9 °F 30.2 °F 81% 30.00 in 10.0 mi SSW 16.1 mph 23.0 mph N/A   Clear
4:55 AM 35.6 °F 25.9 °F 30.2 °F 81% 30.00 in 10.0 mi SSW 16.1 mph 21.9 mph N/A   Clear
5:15 AM 35.6 °F 25.5 °F 30.2 °F 81% 29.99 in 10.0 mi SSW 17.3 mph 23.0 mph N/A   Clear
5:35 AM 35.6 °F 26.2 °F 30.2 °F 81% 29.99 in 10.0 mi SSW 15.0 mph 23.0 mph N/A   Clear
6:35 AM 35.6 °F 26.2 °F 30.2 °F 81% 29.99 in 10.0 mi SSW 15.0 mph 21.9 mph N/A   Clear
6:55 AM 33.8 °F 23.9 °F 30.2 °F 87% 29.98 in 10.0 mi SSW 15.0 mph 20.7 mph N/A   Clear
7:15 AM 35.6 °F 25.5 °F 30.2 °F 81% 29.97 in 10.0 mi SSW 17.3 mph 21.9 mph N/A   Clear
7:55 AM 35.6 °F 25.2 °F 30.2 °F 81% 29.97 in 10.0 mi SSW 18.4 mph - N/A   Clear
8:15 AM 37.4 °F 27.2 °F 30.2 °F 75% 29.97 in 10.0 mi SSW 19.6 mph 27.6 mph N/A   Clear
8:35 AM 37.4 °F 27.5 °F 30.2 °F 75% 29.97 in 10.0 mi SSW 18.4 mph 27.6 mph N/A   Clear
9:35 AM 42.8 °F 34.3 °F 30.2 °F 61% 29.97 in 10.0 mi SSW 19.6 mph 28.8 mph N/A   Clear
9:55 AM 42.8 °F 33.1 °F 30.2 °F 61% 29.96 in 10.0 mi SSW 25.3 mph 32.2 mph N/A   Clear
10:15 AM 44.6 °F 36.9 °F 30.2 °F 57% 29.95 in 10.0 mi SSW 18.4 mph 27.6 mph N/A   Clear
10:35 AM 44.6 °F 36.1 °F 32.0 °F 61% 29.94 in 10.0 mi SSW 21.9 mph 31.1 mph N/A   Clear
11:15 AM 46.4 °F 37.9 °F 32.0 °F 57% 29.91 in 10.0 mi SSW 25.3 mph 31.1 mph N/A   Clear
11:35 AM 46.4 °F 38.7 °F 32.0 °F 57% 29.89 in 10.0 mi SW 20.7 mph 31.1 mph N/A   Clear
11:55 AM 46.4 °F 38.3 °F 32.0 °F 57% 29.87 in 10.0 mi SSW 23.0 mph 32.2 mph N/A   Clear
12:15 PM 48.2 °F - 32.0 °F 54% 29.86 in 10.0 mi SW 23.0 mph 31.1 mph N/A   Clear
12:35 PM 50.0 °F - 32.0 °F 50% 29.85 in 10.0 mi SW 20.7 mph 33.4 mph N/A   Clear
12:55 PM 50.0 °F - 32.0 °F 50% 29.85 in 10.0 mi SW 26.5 mph 33.4 mph N/A   Clear
1:15 PM 50.0 °F - 32.0 °F 50% 29.84 in 10.0 mi SW 27.6 mph 33.4 mph N/A   Clear
1:35 PM 50.0 °F - 32.0 °F 50% 29.84 in 10.0 mi SW 25.3 mph 34.5 mph N/A   Clear
1:55 PM 48.2 °F - 32.0 °F 54% 29.83 in 10.0 mi SW 21.9 mph 28.8 mph N/A   Clear
2:15 PM 48.2 °F - 32.0 °F 54% 29.82 in 10.0 mi SSW 24.2 mph 29.9 mph N/A   Clear
2:35 PM 48.2 °F - 32.0 °F 54% 29.82 in 10.0 mi SSW 21.9 mph 26.5 mph N/A   Clear
2:55 PM 46.4 °F 39.5 °F 32.0 °F 57% 29.82 in 10.0 mi SW 17.3 mph 24.2 mph N/A   Mostly Cloudy
3:15 PM 46.4 °F 39.8 °F 32.0 °F 57% 29.82 in 10.0 mi SSW 16.1 mph 24.2 mph N/A   Scattered Clouds
3:35 PM 48.2 °F - 32.0 °F 54% 29.81 in 10.0 mi SW 19.6 mph 26.5 mph N/A   Clear
3:55 PM 46.4 °F 39.2 °F 32.0 °F 57% 29.81 in 10.0 mi SSW 18.4 mph 25.3 mph N/A   Clear
4:15 PM 46.4 °F 39.8 °F 33.8 °F 62% 29.80 in 10.0 mi SSW 16.1 mph 26.5 mph N/A   Clear
4:35 PM 44.6 °F 37.4 °F 33.8 °F 66% 29.80 in 10.0 mi SSW 16.1 mph - N/A   Clear
4:55 PM 44.6 °F 37.2 °F 33.8 °F 66% 29.81 in 10.0 mi SW 17.3 mph 25.3 mph N/A   Clear
5:15 PM 44.6 °F 37.4 °F 33.8 °F 66% 29.81 in 10.0 mi SW 16.1 mph 23.0 mph N/A   Clear
5:35 PM 42.8 °F 35.1 °F 33.8 °F 70% 29.81 in 10.0 mi SW 16.1 mph - N/A   Clear
5:55 PM 42.8 °F 35.4 °F 33.8 °F 70% 29.83 in 10.0 mi SW 15.0 mph 19.6 mph N/A   Clear
6:15 PM 42.8 °F 35.1 °F 33.8 °F 70% 29.83 in 10.0 mi SW 16.1 mph 20.7 mph N/A   Clear
6:35 PM 42.8 °F 36.6 °F 33.8 °F 70% 29.83 in 10.0 mi SW 11.5 mph - N/A   Clear
6:55 PM 41.0 °F 33.5 °F 33.8 °F 76% 29.83 in 10.0 mi SW 13.8 mph - N/A   Clear
7:15 PM 41.0 °F 32.8 °F 35.6 °F 81% 29.83 in 10.0 mi SW 16.1 mph - N/A   Clear
7:35 PM 41.0 °F 32.5 °F 35.6 °F 81% 29.83 in 10.0 mi SW 17.3 mph - N/A   Clear
7:55 PM 41.0 °F 32.8 °F 35.6 °F 81% 29.83 in 10.0 mi WSW 16.1 mph 23.0 mph N/A   Clear
8:15 PM 41.0 °F 32.8 °F 33.8 °F 76% 29.83 in 10.0 mi WSW 16.1 mph - N/A   Clear
8:35 PM 41.0 °F 32.8 °F 33.8 °F 76% 29.83 in 10.0 mi WSW 16.1 mph 19.6 mph N/A   Clear
8:55 PM 42.8 °F 34.5 °F 33.8 °F 70% 29.83 in 10.0 mi WSW 18.4 mph 25.3 mph N/A   Clear
9:15 PM 42.8 °F 34.5 °F 32.0 °F 66% 29.83 in 10.0 mi WSW 18.4 mph 25.3 mph N/A   Clear
9:35 PM 41.0 °F 31.6 °F 32.0 °F 70% 29.84 in 10.0 mi West 20.7 mph 27.6 mph N/A   Clear
9:55 PM 41.0 °F 31.6 °F 32.0 °F 70% 29.86 in 10.0 mi West 20.7 mph 27.6 mph N/A   Clear
10:15 PM 39.2 °F 29.8 °F 32.0 °F 75% 29.86 in 10.0 mi West 18.4 mph 26.5 mph N/A   Clear
10:35 PM 39.2 °F 29.0 °F 32.0 °F 75% 29.87 in 10.0 mi West 21.9 mph 29.9 mph N/A   Clear
10:55 PM 39.2 °F 28.7 °F 32.0 °F 75% 29.88 in 10.0 mi West 23.0 mph 34.5 mph N/A   Clear
11:15 PM 37.4 °F 26.1 °F 30.2 °F 75% 29.89 in 10.0 mi West 24.2 mph 33.4 mph N/A   Clear
11:35 PM 37.4 °F 25.4 °F 26.6 °F 65% 29.89 in 10.0 mi West 27.6 mph 38.0 mph N/A   Clear
11:55 PM 35.6 °F 24.0 °F 26.6 °F 70% 29.91 in 10.0 mi West 23.0 mph 28.8 mph N/A   Clear